Location: Sortland
(68.7020°N, 15.4240°E)
Time: 13:55:57
(UTC+01:00)

Envisat - Pass Details

Date: 25 October 2019
Orbit: 764 x 766 km, 98.1° (Epoch: 19 November)

Event Time Altitude Azimuth Distance (km) Brightness Sun altitude
Rises 21:32:02 0° 244° (WSW) 3,238 6.6 -25.9°
Reaches altitude 10° 21:36:50 10° 285° (WNW) 2,317 6.3 -26.2°
Maximum altitude 21:37:41 10° 295° (WNW) 2,291 6.4 -26.3°
Drops below altitude 10° 21:38:33 10° 305° (NW) 2,319 6.5 -26.3°
Sets 21:43:22 0° 346° (NNW) 3,250 7.0 -26.7°
